Weather History for Truckee-Tahoe, CA

Change the Weather History Date:

Tuesday, May 6, 2014

  Actual Average Record
Temperature  
Mean Temperature 40 °F -  
Max Temperature 50 °F 60 °F 80 °F (1987)
Min Temperature 30 °F 29 °F 17 °F (1986)
Degree Days  
Heating Degree Days 25    
Moisture  
Dew Point 27 °F    
Average Humidity 72    
Maximum Humidity 100    
Minimum Humidity 32    
Precipitation  
Precipitation 0.01 in - - ()
Sea Level Pressure  
Sea Level Pressure 29.89 in    
Wind  
Wind Speed 4 mph (NNW)    
Max Wind Speed 16 mph    
Max Gust Speed 23 mph    
Visibility 8 miles    
Events Rain , Snow    
Averages and records for this station are not official NWS values.
T = Trace of Precipitation, MM = Missing Value Source: NWS Daily Summary

Daily Weather History Graph

Daily Weather History Graph

Search for Another Location

Airport:

Trip Planner

Search our weather history database for the weather conditions in past years. The results will help you decide how hot, cold, wet, or windy it might be!

Date:

Astronomy

May. 06, 2014 Rise Set
Actual Time 5:55 AM PDT 7:58 PM PDT
Civil Twilight 5:26 AM PDT 8:28 PM PDT
Nautical Twilight 4:50 AM PDT 9:04 PM PDT
Astronomical Twilight 4:11 AM PDT 9:43 PM PDT
Moon 12:16 PM PDT (5/6) 1:21 AM PDT (5/6)
Length of Visible Light 15h 01m
Length of Day
14h 02m
Waxing Crescent, 47% of the Moon is Illuminated
May 6
Waxing Crescent
May 6
First Quarter
May 14
Full
May 21
Last Quarter
May 28
New

Hourly Weather History & Observations

Time (PDT) Temp. Windchill Dew Point Humidity Pressure Visibility Wind Dir Wind Speed Gust Speed Precip Events Conditions
12:15 AM 32.0 °F - 32.0 °F 100% 29.88 in 1.2 mi Calm Calm - N/A Snow Light Snow
12:35 AM 32.0 °F - 32.0 °F 100% 29.88 in 4.0 mi Calm Calm - 0.01 in Snow Light Snow
4:55 AM 32.0 °F - 32.0 °F 100% 29.83 in 10.0 mi Calm Calm - N/A   Overcast
5:15 AM 32.0 °F - 32.0 °F 100% 29.83 in 10.0 mi Calm Calm - N/A   Overcast
5:35 AM 32.0 °F - 32.0 °F 100% 29.83 in 10.0 mi Calm Calm - N/A   Overcast
5:55 AM 32.0 °F - 32.0 °F 100% 29.83 in 10.0 mi Calm Calm - N/A Snow Light Snow
6:15 AM 32.0 °F - 32.0 °F 100% 29.84 in 1.5 mi Calm Calm - 0.01 in Snow Light Snow
6:35 AM 32.0 °F - 32.0 °F 100% 29.85 in 7.0 mi Calm Calm - N/A Rain Light Rain
6:55 AM 33.8 °F - 32.0 °F 93% 29.85 in 3.0 mi Calm Calm - N/A Snow Light Snow
7:45 AM 33.8 °F 29.6 °F 33.8 °F 100% 29.86 in 6.0 mi North 4.6 mph - N/A Snow Light Snow
8:45 AM 35.6 °F 30.7 °F 33.8 °F 93% 29.86 in 6.0 mi North 5.8 mph - N/A Snow Light Snow Showers
9:45 AM 37.4 °F 30.8 °F 33.8 °F 87% 29.88 in 5.0 mi North 9.2 mph - N/A Rain Light Rain
10:50 AM 37.4 °F 30.8 °F 33.8 °F 87% 29.88 in 5.0 mi North 9.2 mph - N/A Rain Light Rain
11:45 AM 37.4 °F 32.8 °F 33.8 °F 87% 29.90 in 6.0 mi NNW 5.8 mph - N/A Snow Light Snow Showers
1:45 PM 46.4 °F 40.7 °F 30.2 °F 53% 29.89 in 10.0 mi North 12.7 mph 16.1 mph N/A   Mostly Cloudy
2:45 PM 46.4 °F 40.7 °F 26.6 °F 46% 29.88 in 10.0 mi NNW 12.7 mph 16.1 mph N/A   Mostly Cloudy
3:45 PM 48.2 °F - 24.8 °F 40% 29.88 in 10.0 mi North 8.1 mph 17.3 mph N/A   Mostly Cloudy
4:45 PM 50.0 °F - 23.0 °F 35% 29.88 in 10.0 mi NNW 10.4 mph 17.3 mph N/A   Mostly Cloudy
5:50 PM 50.0 °F - 23.0 °F 35% 29.88 in 10.0 mi NW 16.1 mph 23.0 mph N/A   Mostly Cloudy
6:15 PM 46.4 °F 41.9 °F 23.0 °F 40% 29.88 in 10.0 mi NW 9.2 mph - N/A   Scattered Clouds
6:35 PM 50.0 °F - 21.2 °F 32% 29.88 in 10.0 mi North 12.7 mph 18.4 mph N/A   Mostly Cloudy
6:55 PM 46.4 °F 41.9 °F 19.4 °F 34% 29.88 in 10.0 mi North 9.2 mph 16.1 mph N/A   Mostly Cloudy
7:15 PM 44.6 °F 40.2 °F 19.4 °F 37% 29.89 in 10.0 mi NW 8.1 mph - N/A   Scattered Clouds
7:35 PM 44.6 °F 40.7 °F 21.2 °F 39% 29.90 in 10.0 mi NW 6.9 mph - N/A   Mostly Cloudy
7:55 PM 42.8 °F 38.6 °F 23.0 °F 46% 29.90 in 10.0 mi NW 6.9 mph - N/A   Mostly Cloudy
8:15 PM 42.8 °F 38.0 °F 23.0 °F 46% 29.91 in 10.0 mi NW 8.1 mph - N/A   Scattered Clouds
8:35 PM 41.0 °F 36.4 °F 23.0 °F 49% 29.91 in 10.0 mi NW 6.9 mph - N/A   Clear
8:55 PM 37.4 °F - 23.0 °F 56% 29.92 in 10.0 mi Calm Calm - N/A   Clear
9:15 PM 32.0 °F 27.5 °F 26.6 °F 80% 29.92 in 10.0 mi ESE 4.6 mph - N/A   Scattered Clouds
9:35 PM 32.0 °F 27.5 °F 26.6 °F 80% 29.93 in 10.0 mi SE 4.6 mph - N/A   Scattered Clouds
9:55 PM 32.0 °F 26.4 °F 26.6 °F 80% 29.94 in 10.0 mi SE 5.8 mph - N/A   Clear
10:15 PM 30.2 °F - 24.8 °F 80% 29.94 in 10.0 mi Calm Calm - N/A   Scattered Clouds
10:35 PM 30.2 °F 26.7 °F 24.8 °F 80% 29.94 in 10.0 mi SSE 3.5 mph - N/A   Clear
10:55 PM 30.2 °F 25.4 °F 24.8 °F 80% 29.94 in 10.0 mi South 4.6 mph - N/A   Clear
11:15 PM 32.0 °F - 26.6 °F 80% 29.94 in 10.0 mi Calm Calm - N/A   Scattered Clouds
11:35 PM 30.2 °F - 26.6 °F 86% 29.94 in 10.0 mi Calm Calm - N/A   Scattered Clouds
11:55 PM 30.2 °F - 26.6 °F 86% 29.94 in 10.0 mi Calm Calm - N/A   Clear